Flag for Germany Weather past 2 weeks in Bad Neuenahr-Ahrweiler, Rhineland-Palatinate, Germany

Now
34 °F

Fog.


Feels Like: 29 °F
Forecast: 36 / 42 °F
Wind: 6 mph from Southwest

Location: Bonn-Hangelar

Current Time: Jan 25, 2015 at 11:36:46 AM

Latest Report: Jan 25, 2015 at 11:00 AM


Visibility: 3 mi

Pressure: 30.46 "Hg

Humidity: 97%

Dew point: 33 °F

Location of Bad Neuenahr-AhrweilerLocation

Historic Weather in Bad Neuenahr-Ahrweiler — Graph

°F

Bad Neuenahr-Ahrweiler temperature yesterday

Maximum temperature yesterday: 35 °F (at 6:00 PM)
Minimum temperature yesterday: 27 °F (at 12:00 AM)
Average temperature yesterday: 32 °F

Past Weeks' High & Low Weather Summary

 TemperatureHumidityPressure
High53 °F (Jan 10, 10:00 AM)100% (Jan 19, 11:00 PM)30.45 "Hg (Jan 19, 11:00 PM)
Low26 °F (Jan 21, 7:00 AM)64% (Jan 10, 9:00 PM)29.44 "Hg (Jan 15, 2:00 PM)
Average37 °F86%29.96 "Hg
* Reported Jan 10 10:00 AM — Jan 25 10:00 AM, Bad Neuenahr-Ahrweiler, Weather by CustomWeather, © 2014

Note: Actual official high and low records may vary slightly from our data, if they occured in-between our weather recording intervals... More about our weather records

Advertising

Bad Neuenahr-Ahrweiler weather history for previous 24 hours

 ConditionsComfort  
Time TempWeatherWind HumidityBarometerVisibility
10:00 AM
Jan 25
34 °FFog.5 mph97%30.45 "Hg3 mi
9:00 AM34 °FOvercast.5 mph97%30.45 "Hg2 mi
8:00 AM33 °FFog.5 mph98%30.44 "Hg3 mi
7:00 AM33 °FFog.2 mph98%30.44 "Hg2 mi
6:00 AM32 °FLow clouds.5 mph98%30.42 "Hg5 mi
4:00 AM31 °FFog.3 mph99%30.40 "Hg2 mi
3:00 AM31 °FFog.3 mph99%30.40 "Hg2 mi
2:00 AM31 °FFog.3 mph100%30.39 "Hg2 mi
1:00 AM32 °FFog.3 mph99%30.38 "Hg2 mi
12:00 AM33 °FFog.5 mph98%30.38 "Hg2 mi
11:00 PM
Jan 24
34 °FPassing clouds.3 mph99%30.36 "Hg3 mi
10:00 PM33 °FPassing clouds.3 mph98%30.35 "Hg4 mi
9:00 PM34 °FPassing clouds.3 mph98%30.33 "Hg6 mi
8:00 PM34 °FLight rain. Low clouds.7 mph94%30.32 "Hg6 mi
7:00 PM35 °FLight rain. Overcast.2 mph98%30.29 "Hg5 mi
6:00 PM35 °FPassing clouds.5 mph96%30.25 "Hg5 mi
5:00 PM35 °FOvercast.5 mph97%30.22 "Hg6 mi
4:00 PM35 °FFog.5 mph97%30.19 "Hg4 mi
3:00 PM34 °FLow clouds.5 mph98%30.16 "Hg2 mi
2:00 PM33 °FLow clouds.7 mph99%30.14 "Hg1 mi
1:00 PM32 °FLight snow. Low clouds.7 mph99%30.12 "Hg3 mi
12:00 PM31 °FSnow. Low clouds.7 mph99%30.12 "Hg1 mi
11:00 AM31 °FSnow. Low clouds.8 mph100%30.11 "Hg1 mi
Weather by CustomWeather, © 2014

See weather overviewHow to use our weather pages